STARLINK-35273, 65805

Orbit data source: Space-Track

STARLINK-35273, 65805 is a payload satellite owned by SpaceX/Seattle (US) in SSO that was launched on Fri, 26 Sep 2025 UTC via an FALCON 9 launch vehicle from the Air Force Western Test Range (AFWTR). Payload-class satellites include a variety of spacecraft equipped with specific instruments for various scientific and technological missions. These include communications satellites like Starlink; space stations such as the ISS; scientific satellites like the Hubble; Earth observation satellites from companies like Planet Labs, Umbra, and HawkEye 360; GPS; miniature CubeSats for education and research; and military/defense satellites.

Loading next visibility...
Identifier
65805, 2025-218Q
Orbit
SSO
Country
Flag of USUS
Related business
Manufacturer
SpaceX/Seattle
Mission
Operational Commercial Communications
Bus & Motor
STARLINK V2MO, Unknown motor
Mass
575 kg wet, ~530 kg dry
Launch date (UTC)
2025-09-26 (2 months ago)
Launch vehicle
FALCON 9
Launch site
Air Force Western Test Range (AFWTR)
Object type
Payload
Rocket body
Debris
Shape & HBR
Box + 2 Pan, 17.7 m
Radar Cross Section
36.964 m²

Expand to show TLE details & history
Last TLE update: 14 hours ago

TLE from 14 hours ago
0 STARLINK-35273
1 65805U 25218Q   25340.62245484  .00011122  00000-0  77359-3 0  9992
2 65805  97.6016 201.1852 0002295  90.3729 269.7761 15.05658440 10964
Epoch: 2025-12-06T14:56Z
TLE epoch observation values (Epoch: 2025-12-06T14:56:20.098Z)
Latitude
0.00002°
Longitude
-98.54609°
Altitude
552.557 km
Speed
7.585 km/s
True Right ascension
13h 24m 44s
True Declination
0° 00' 00"
Sunlit
Object was in daylight at epoch
Visualization orbit readout
Latitude
Unknown
Longitude
Unknown
Altitude
Unknown
Speed
Unknown
Apparent Right ascension
Unknown
Apparent Declination
Unknown
Sunlit
N/A
Visualization observer readout
Local Sidereal Time
03:23:46
Azimuth
Unknown
Elevation
Unknown
Doppler factor
Unknown
Orbital elements
Apogee altitude
548.068 km
Perigee altitude
544.889 km
Semi-major axis
6,924.616 km
Eccentricity
0.00023
Inclination
97.6016°
RAAN
201.1852°
Arg. of periapsis
90.3729°
True anomaly
269.7498°
Mean anomaly
269.7761°
Eccentric anomaly
269.76295°
Mean motion
3.7666 °/min
Orbital period
95.58 mins
BSTAR
0.00077359
Loading maneuver chart data...
Computing Atmospheric mass density...
Loading historical data...
Loading historical data...
Loading historical data...
Loading historical data...
Loading historical data...
Loading historical data...
Loading historical data...

Documentation

Showing up to 5 results
|